TimeCST,TemperatureF,Dew PointF,Humidity,Sea Level PressureIn,VisibilityMPH,Wind Direction,Wind SpeedMPH,Gust SpeedMPH,PrecipitationIn,Events,Conditions,WindDirDegrees,DateUTC
12:53 AM,30.9,25.0,79,30.34,10.0,Calm,Calm,-,N/A,,Clear,0,2012-12-13 06:53:00
1:53 AM,30.0,25.0,82,30.34,10.0,Calm,Calm,-,N/A,,Clear,0,2012-12-13 07:53:00
2:53 AM,28.9,25.0,85,30.34,10.0,Calm,Calm,-,N/A,,Clear,0,2012-12-13 08:53:00
3:53 AM,28.0,25.0,88,30.34,10.0,Calm,Calm,-,N/A,,Clear,0,2012-12-13 09:53:00
4:53 AM,27.0,23.0,85,30.33,10.0,Calm,Calm,-,N/A,,Clear,0,2012-12-13 10:53:00
5:53 AM,27.0,23.0,85,30.35,10.0,Calm,Calm,-,N/A,,Clear,0,2012-12-13 11:53:00
6:53 AM,26.1,23.0,88,30.36,10.0,Calm,Calm,-,N/A,Fog,Patches of Fog,0,2012-12-13 12:53:00
7:53 AM,28.9,25.0,85,30.36,10.0,Calm,Calm,-,N/A,,Clear,0,2012-12-13 13:53:00
8:53 AM,39.0,34.0,82,30.37,10.0,Calm,Calm,-,N/A,,Clear,0,2012-12-13 14:53:00
9:53 AM,46.9,30.9,54,30.38,10.0,SSE,6.9,-,N/A,,Clear,150,2012-12-13 15:53:00
10:53 AM,51.1,27.0,39,30.39,10.0,SSE,8.1,-,N/A,,Clear,150,2012-12-13 16:53:00
11:53 AM,54.0,26.1,34,30.35,10.0,South,4.6,-,N/A,,Clear,170,2012-12-13 17:53:00
12:53 PM,57.0,26.1,30,30.32,10.0,Variable,4.6,-,N/A,,Clear,0,2012-12-13 18:53:00
1:53 PM,59.0,24.1,26,30.29,10.0,SSW,4.6,-,N/A,,Clear,200,2012-12-13 19:53:00
2:53 PM,61.0,21.9,22,30.26,10.0,ESE,4.6,-,N/A,,Clear,120,2012-12-13 20:53:00
3:53 PM,61.0,21.9,22,30.25,10.0,SE,8.1,-,N/A,,Clear,130,2012-12-13 21:53:00
7:53 PM,43.0,30.0,60,30.27,10.0,SSE,4.6,-,N/A,,Clear,150,2012-12-14 01:53:00
8:53 PM,41.0,30.0,65,30.27,10.0,SE,3.5,-,N/A,,Clear,130,2012-12-14 02:53:00
9:53 PM,43.0,28.0,56,30.28,10.0,Calm,Calm,-,N/A,,Clear,0,2012-12-14 03:53:00
10:53 PM,36.0,28.0,73,30.27,10.0,Calm,Calm,-,N/A,,Clear,0,2012-12-14 04:53:00
11:53 PM,35.1,28.0,76,30.26,10.0,Calm,Calm,-,N/A,,Clear,0,2012-12-14 05:53:00